Temp_Advection
nan nan nan nan nan nan nan nan nan nan nan nan nan nan nan nan nan nan nan nan nan nan nan nan nan nan nan nan nan nan nan nan nan nan nan nan nan nan nan nan nan nan nan
nan -0 -0 -0 -0 0 0 0 0 -0 -0 0 -0 0 0 0 0 0 0 0 0 0 0 0 0 0 0 0 0 0 0 0 0 0 0 0 -0 -0 -0 0 -0 -0 nan
nan 0 -0 -0 -0 0 0 0 -0 -0 -0 -0 0 0 0 0 0 0 -0 -0 -0 -0 -0 -0 0 0 -0 0 -0 -0 -0 -0 -0 0 0 0 0 0 0 -0 -0 -0 nan
nan 0 -0 -0 -0 0 -0 -0 -0 -0 -0 -0 -0 -0 0 0 -0 -0 -0 -0 -0 -0 -0 -0 -0 -0 -0 -0 -0 -0 -0 -0 0 0 0 0 0 0 -0 -0 -0 -0 nan
nan 0 -0 -0 0 -0 -0 -0 -0 -0 -0 -0 -0 -0 -0 -0 -0 0 -0 -0 -0 -0 -0 -0 -0 -0 -0 -0 -0 -0 -0 -0 -0 0 0 -0 0 0 -0 -0 -0 -0 nan
nan -0 1 0 0 -0 0 -0 -0 -0 -0 -0 -0 -0 -0 -0 0 0 -0 -0 -0 -0 -0 -0 -0 -0 -0 -0 -0 -0 -0 -0 -0 -0 -0 -0 -0 -0 -0 -0 -0 -0 nan
nan 1 1 1 -0 -0 0 -0 -0 -0 -0 -0 -0 -0 -0 -0 -0 0 0 -0 -0 -0 -0 -0 -0 -0 -0 -0 -0 -0 -0 -0 -0 -0 -0 -0 -0 -0 -0 -0 0 -0 nan
nan 1 0 0 0 0 0 -0 -0 -0 -0 -0 -0 -0 -0 -0 -0 -0 -0 0 -0 -0 -0 -0 -0 -0 -0 -0 -0 -0 -0 -0 -0 -0 -0 -0 -1 -0 -0 -0 -0 -0 nan
nan 0 0 -0 0 0 0 0 -0 -0 -0 -0 -0 -0 -0 -0 -0 -0 0 0 -0 -0 -0 -0 -0 -0 -0 -0 -0 -0 -0 -0 -0 -0 -0 -1 -1 -0 0 0 0 -0 nan
nan 0 -0 -0 0 0 0 0 0 0 -0 -0 -0 -0 -0 -0 -0 0 -0 -0 -0 -0 0 -0 -0 -0 -0 -0 -0 -0 -0 -0 0 0 -0 -1 -0 0 0 0 -0 -0 nan
nan -0 -0 0 0 0 0 0 0 0 0 0 -0 -0 0 -0 -0 -0 -0 -0 -0 -0 -0 -0 -0 -0 -0 -0 -0 -0 -0 -0 0 -0 -1 -1 -0 0 0 0 0 0 nan
nan 0 0 0 0 0 0 0 0 0 0 0 0 -0 -0 -0 -0 0 0 0 -0 -0 -0 -0 -0 -0 -0 -0 -0 -0 -0 0 0 -0 -0 -1 -0 1 0 0 0 0 nan
nan 0 0 0 0 0 0 0 0 0 0 -0 -0 0 0 -0 -0 0 -0 -0 -0 -0 -0 -0 -0 -0 -0 -0 -0 -0 -0 0 0 -0 -1 -1 0 0 -0 0 -0 -0 nan
nan 0 0 0 0 0 0 0 0 0 0 0 -0 -0 0 0 -0 -0 -0 -0 -0 -0 -0 -0 -0 -0 -0 -0 -0 -0 -0 -0 0 -0 -1 -1 0 0 0 -0 -0 -0 nan
nan 0 1 0 0 0 0 0 0 0 0 0 0 0 0 0 -0 -0 -0 -0 -0 -0 -0 -0 -0 -0 -0 -0 -0 -0 0 -0 -0 -0 -0 -0 -0 0 0 -0 -0 -0 nan
nan 1 0 0 0 0 0 0 0 0 0 0 0 0 0 0 0 0 -0 -0 -0 -0 -0 -0 -0 -0 -0 -0 -0 -0 -0 -0 -0 -0 -0 -0 -0 -0 -0 0 -0 -0 nan
nan -0 -0 0 0 0 -0 0 0 0 0 0 0 0 0 0 0 0 0 -0 -0 -0 -0 -0 -0 -0 -0 -0 -0 -0 -0 -0 -0 -0 -0 -0 -0 -0 0 0 0 -0 nan
nan -0 -0 0 -0 -0 0 0 0 0 0 0 0 0 -0 0 0 0 0 0 -0 -0 -0 -0 -0 -0 -0 -0 -0 -0 -0 -0 -0 -0 -0 -0 -0 -0 -0 -0 -0 -0 nan
nan 0 0 -0 -0 -0 0 0 0 0 0 0 0 0 0 -0 -0 0 0 0 -0 -0 -0 -0 -0 -0 -0 -0 -0 -0 -0 0 -0 -0 -0 -0 -0 -0 -0 -0 -0 -0 nan
nan 1 0 -0 -0 0 0 0 0 -0 -0 -0 0 0 0 0 0 0 0 0 0 0 0 0 -0 -0 -0 -0 -0 -0 -0 0 -0 -0 -0 -0 -0 -0 -0 -0 -0 -0 nan
nan 0 0 -0 0 0 -0 -0 -0 -0 0 0 0 0 0 0 0 0 0 0 0 0 0 0 0 0 -0 -0 -0 -0 -0 -0 -0 -0 -0 -0 -0 -0 -0 0 0 -0 nan
nan 0 1 0 -0 -0 -0 -0 -0 1 1 0 0 0 0 0 0 0 0 0 0 0 0 0 0 0 0 0 -0 -0 -0 0 -0 -0 -0 -0 -0 -0 -0 -0 -0 -0 nan
nan 1 1 -0 -1 -0 0 1 0 -0 -0 -1 -0 0 0 0 0 0 0 0 0 0 0 0 0 0 0 0 0 -0 -0 -0 -0 -0 0 -0 -0 -0 -0 -0 0 0 nan
nan 0 0 -0 -0 -0 0 -0 -1 -1 -1 -0 0 0 0 0 0 0 0 0 0 0 0 0 0 0 0 0 0 0 0 0 -0 -0 0 0 0 -0 -0 -0 -0 -0 nan
nan 1 -1 -1 -1 -0 0 -0 -1 0 0 1 0 0 0 0 0 0 0 0 0 0 0 0 0 0 0 0 0 0 0 0 0 -0 -0 0 0 0 0 -0 -0 -0 nan
nan nan nan nan nan nan nan nan nan nan nan nan nan nan nan nan nan nan nan nan nan nan nan nan nan nan nan nan nan nan nan nan nan nan nan nan nan nan nan nan nan nan nan
Wind_Speed
25 27 24 22 21 18 18 17 16 16 14 13 12 8 5 2 2 3 3 3 2 2 2 2 3 3 4 5 5 4 4 4 3 3 3 2 2 4 5 6 7 7 7
30 29 25 25 21 19 19 18 17 16 11 11 7 4 3 3 3 3 3 2 2 2 3 3 3 3 4 4 5 5 5 4 4 3 3 2 4 4 7 8 7 6 5
30 30 27 25 23 22 19 18 17 13 11 8 4 3 3 2 3 3 3 3 3 3 3 3 3 4 4 4 4 5 4 3 3 3 4 3 2 2 1 1 3 5 5
32 31 28 26 24 23 21 19 15 12 10 6 5 4 3 3 3 3 3 3 3 3 4 4 4 5 5 5 5 4 3 3 3 2 2 2 5 6 6 7 8 9 10
33 31 28 27 25 23 21 17 14 11 8 7 5 4 4 4 4 4 3 3 3 4 4 4 5 5 5 5 5 5 4 1 2 3 3 3 3 7 9 10 9 10 11
33 31 29 28 26 23 20 17 13 10 8 7 6 6 5 5 5 5 5 4 5 5 5 5 5 5 6 6 6 5 3 3 2 3 4 5 5 5 5 8 9 10 8
34 33 30 30 27 23 20 16 12 10 8 7 7 6 6 6 6 6 6 5 5 6 5 6 6 6 7 7 8 7 6 6 6 5 6 6 6 7 6 7 8 9 9
36 33 31 29 26 23 19 15 12 10 9 8 7 7 8 8 7 7 7 6 6 6 7 7 7 7 8 9 10 8 10 9 9 9 9 9 11 10 9 7 8 8 6
35 35 33 29 26 22 18 15 13 12 10 8 8 8 8 8 8 8 8 7 7 7 7 7 8 8 10 11 9 9 12 12 11 12 11 10 16 12 9 9 7 8 9
34 34 32 30 27 23 20 16 14 12 11 9 9 9 8 8 9 9 8 8 7 7 7 7 8 9 10 9 9 10 13 12 12 13 12 16 15 13 14 12 9 9 10
33 33 31 30 26 22 19 17 15 13 11 10 10 10 9 9 9 8 8 8 7 7 7 8 9 10 10 9 9 10 11 12 13 14 15 20 16 16 14 13 13 12 15
38 34 32 29 26 23 19 17 16 14 12 11 11 10 10 9 9 8 8 8 7 8 7 9 9 10 9 9 9 10 10 11 12 14 14 15 20 20 17 17 18 18 17
38 36 33 30 26 23 20 18 17 14 12 11 10 10 10 9 9 8 8 8 7 8 8 8 9 9 9 9 8 10 10 10 12 13 15 19 19 17 15 17 17 16 14
37 36 33 29 26 23 19 18 16 15 13 11 10 9 9 8 8 8 8 7 7 6 7 7 8 9 10 9 8 8 9 9 10 12 14 15 17 18 19 17 17 12 11
36 36 33 29 26 23 20 19 18 15 13 11 10 9 8 8 7 7 6 6 5 6 6 7 7 8 8 9 8 7 8 8 9 10 11 10 10 15 16 16 15 13 11
35 34 31 28 26 23 20 18 17 16 14 12 10 9 8 8 7 6 5 5 5 5 5 6 6 6 7 7 6 7 6 7 8 8 9 8 7 7 7 6 6 5 8
31 29 27 27 26 23 20 18 17 15 13 11 10 9 8 7 6 5 4 4 4 5 5 5 5 5 5 6 6 6 5 5 6 7 7 5 6 4 3 2 1 4 5
29 30 26 26 25 23 21 18 16 14 13 11 10 9 8 7 6 5 3 3 3 4 5 5 5 5 4 4 5 5 5 5 6 6 6 5 5 6 3 2 2 4 7
28 28 30 29 28 22 21 18 16 15 13 12 10 9 8 7 6 5 3 2 3 3 4 5 5 4 4 4 5 6 5 5 6 4 4 4 4 5 6 7 8 6 9
29 34 28 30 27 24 21 21 19 18 16 13 11 10 9 8 7 6 4 2 3 3 4 4 4 4 4 5 5 6 7 7 7 6 5 5 4 4 4 5 5 7 9
33 35 35 34 33 30 28 26 24 20 18 15 12 11 10 9 8 6 5 4 3 3 3 4 4 4 4 5 5 6 5 5 5 6 6 5 6 6 6 3 5 5 7
31 38 41 38 37 33 31 27 24 22 19 14 13 13 12 11 10 8 7 6 5 5 5 4 4 4 5 4 6 7 6 4 2 5 6 5 5 7 7 5 6 6 9
36 39 47 40 39 35 33 31 26 21 20 20 18 15 13 12 12 11 10 8 6 6 6 5 5 5 5 5 6 5 4 4 6 6 4 2 2 5 5 6 5 8 11
39 20 47 41 41 36 33 32 28 24 25 24 16 11 14 14 14 13 12 10 9 8 7 7 6 6 6 6 6 4 4 5 5 7 7 3 1 4 3 6 5 7 6
48 41 52 50 43 38 35 34 30 29 25 22 19 16 17 16 16 16 14 12 11 10 9 8 8 7 7 6 6 6 6 6 6 6 6 7 6 3 1 2 2 3 4
49 46 39 33 39 43 39 36 33 29 27 26 23 20 20 19 18 18 16 14 13 12 11 10 10 9 8 8 7 7 7 7 7 7 6 5 2 5 5 5 4 3 6
Wind_Direction
174 176 169 162 160 150 144 139 133 127 126 125 124 117 117 102 105 104 91 89 69 36 16 9 2 355 355 356 356 358 4 6 22 29 37 40 46 37 13 359 359 348 352
161 173 170 164 159 154 146 139 135 136 143 141 131 121 116 110 92 78 70 65 66 49 29 22 10 7 358 351 348 348 346 342 335 310 291 344 26 26 9 2 347 329 330
164 167 168 168 158 152 152 147 150 150 146 142 137 130 118 103 91 84 71 60 50 42 29 16 4 354 352 347 345 345 345 333 314 298 277 265 271 200 139 359 345 314 302
162 163 164 166 162 159 156 160 159 155 157 157 148 137 122 109 96 89 86 77 53 34 24 13 3 3 0 1 359 1 354 332 290 293 293 259 253 263 249 271 282 284 284
165 164 165 165 161 164 162 160 158 158 163 157 146 132 118 106 101 97 86 74 63 52 36 24 16 14 15 20 22 25 26 322 301 311 325 327 290 282 301 309 315 304 292
166 166 165 161 162 164 160 161 161 161 158 148 137 124 114 108 100 90 80 68 60 50 44 43 41 40 45 49 53 60 71 49 34 3 351 345 337 336 13 22 19 26 30
166 163 161 164 167 166 163 164 163 159 152 142 133 123 117 110 102 93 84 76 71 67 63 64 63 63 68 78 83 87 84 67 53 47 39 25 22 25 35 54 46 34 26
166 163 167 169 168 167 165 164 161 156 149 140 132 126 122 115 107 99 91 84 78 79 78 76 76 82 87 93 90 83 72 65 55 45 34 38 59 45 37 49 48 30 14
167 166 170 171 169 166 166 165 162 157 149 141 133 126 123 116 109 102 96 91 85 80 82 91 91 89 91 95 90 77 69 60 53 42 46 56 49 39 48 55 56 45 32
172 174 174 172 171 170 168 167 164 159 152 142 133 130 127 119 110 106 98 96 89 91 85 87 91 92 93 92 84 74 69 59 52 48 52 61 54 52 42 48 55 54 48
181 179 177 174 173 172 170 167 166 161 154 143 140 137 135 126 113 104 104 99 95 93 91 86 85 90 89 88 81 72 67 58 53 51 57 67 56 48 60 60 59 58 53
182 182 180 178 176 175 173 172 169 164 157 148 144 141 138 125 118 114 109 107 98 92 93 87 88 86 88 87 77 75 70 62 57 55 65 69 68 45 54 60 63 64 62
183 184 182 180 179 179 177 175 171 165 160 153 148 142 136 131 124 116 108 101 92 88 84 86 85 90 90 93 82 75 70 64 58 60 72 82 79 60 59 67 63 72 72
186 187 183 182 182 181 182 176 175 169 164 159 149 147 137 131 127 114 104 98 96 96 92 93 90 92 95 92 82 77 72 65 62 65 80 93 90 83 70 75 75 61 49
188 187 184 184 185 183 184 180 176 172 167 160 156 148 143 140 129 119 111 102 101 100 99 98 93 98 95 94 90 78 69 67 65 68 73 93 102 101 92 85 76 65 42
190 188 186 186 186 187 188 186 179 175 171 167 159 157 155 147 141 129 111 101 99 106 105 104 101 101 97 97 97 88 71 61 65 68 68 76 96 120 125 113 112 85 44
193 191 192 188 188 189 190 187 183 178 175 169 165 165 160 153 148 141 118 103 108 110 110 110 109 108 111 109 103 85 80 64 55 63 60 65 66 93 126 160 279 325 4
195 194 202 194 194 192 192 189 185 182 180 178 175 174 170 167 162 160 141 116 116 119 124 125 121 121 130 122 110 102 84 74 64 43 36 55 47 45 62 66 47 49 46
198 204 206 202 197 196 196 193 189 189 188 188 187 185 183 180 180 179 172 147 134 134 130 134 133 131 123 139 118 105 94 82 62 61 45 42 50 29 32 45 36 46 30
211 212 210 210 200 202 205 200 195 192 193 196 196 196 198 198 198 197 198 182 164 156 149 147 148 144 126 144 138 129 114 108 67 63 73 60 47 37 27 44 20 8 4
223 210 210 215 201 206 205 203 199 196 197 198 201 207 207 209 211 213 213 216 203 182 171 174 169 158 142 156 160 167 152 127 85 77 76 64 65 54 31 358 334 23 20
217 216 215 216 207 205 213 212 208 203 203 200 205 214 216 218 221 223 223 224 221 205 200 196 187 182 171 168 178 172 181 185 144 106 92 92 72 44 31 21 356 349 358
221 226 213 213 211 211 212 213 209 203 206 202 207 217 224 224 227 226 229 228 227 221 217 212 208 205 193 180 181 190 172 177 165 160 145 107 66 38 31 28 351 326 328
206 234 217 213 212 214 213 212 212 216 223 223 217 221 229 229 232 232 232 230 229 226 224 221 222 214 211 201 187 193 203 187 176 178 200 209 321 342 1 22 31 348 10
206 210 217 209 212 214 218 215 219 226 223 222 214 221 233 234 233 233 233 231 230 228 228 226 227 226 220 217 212 207 207 209 207 190 190 223 261 250 280 7 63 14 352
218 214 206 217 217 218 218 219 223 226 224 220 226 229 237 235 232 233 233 230 229 229 233 231 230 230 230 230 228 226 224 220 216 213 214 228 187 190 224 206 232 286 317
Height
1523 1528 1531 1534 1536 1537 1539 1541 1542 1544 1545 1545 1546 1546 1546 1545 1545 1545 1545 1545 1544 1544 1543 1542 1542 1541 1540 1539 1539 1538 1538 1538 1538 1537 1537 1536 1536 1536 1536 1535 1535 1535 1534
1518 1525 1530 1533 1535 1537 1539 1541 1542 1544 1544 1545 1546 1546 1546 1545 1545 1544 1544 1544 1544 1543 1543 1542 1541 1540 1539 1538 1538 1537 1537 1537 1537 1536 1536 1536 1536 1536 1535 1535 1535 1535 1534
1518 1523 1528 1532 1535 1537 1539 1540 1542 1543 1544 1545 1545 1545 1545 1545 1544 1544 1544 1543 1543 1542 1542 1541 1540 1540 1538 1538 1537 1536 1536 1535 1534 1534 1534 1535 1535 1535 1535 1534 1534 1534 1533
1517 1522 1526 1531 1534 1536 1539 1540 1541 1542 1543 1544 1544 1544 1544 1544 1544 1544 1543 1543 1542 1542 1541 1540 1539 1538 1537 1537 1536 1535 1535 1534 1533 1534 1534 1535 1535 1534 1535 1534 1534 1533 1533
1517 1521 1525 1529 1533 1535 1537 1540 1541 1542 1543 1543 1543 1543 1543 1544 1544 1543 1543 1542 1542 1541 1540 1540 1539 1538 1537 1536 1535 1534 1534 1533 1533 1533 1534 1534 1534 1534 1533 1532 1532 1531 1531
1517 1521 1525 1528 1531 1534 1537 1540 1541 1542 1542 1542 1543 1543 1543 1543 1543 1543 1542 1542 1541 1541 1540 1539 1539 1538 1537 1536 1535 1535 1533 1533 1533 1534 1533 1533 1533 1533 1532 1532 1532 1532 1531
1517 1521 1525 1527 1530 1534 1536 1539 1540 1541 1542 1542 1542 1542 1542 1542 1542 1542 1542 1542 1541 1541 1540 1539 1538 1538 1537 1536 1535 1535 1534 1534 1534 1534 1534 1533 1533 1532 1532 1532 1532 1532 1531
1516 1521 1525 1528 1530 1533 1535 1537 1539 1540 1541 1541 1542 1542 1542 1542 1542 1542 1542 1542 1542 1541 1540 1539 1539 1538 1537 1537 1536 1535 1535 1535 1534 1534 1533 1533 1532 1533 1532 1531 1532 1532 1531
1518 1521 1524 1527 1530 1533 1535 1537 1538 1540 1540 1541 1541 1542 1542 1542 1542 1542 1542 1542 1542 1541 1540 1539 1539 1538 1538 1537 1536 1536 1536 1535 1535 1534 1533 1533 1533 1532 1531 1531 1531 1531 1530
1520 1522 1524 1526 1529 1532 1534 1536 1538 1539 1540 1540 1542 1542 1542 1542 1542 1542 1542 1542 1542 1541 1541 1540 1539 1538 1538 1537 1537 1537 1536 1536 1535 1535 1534 1533 1534 1534 1533 1531 1531 1531 1531
1520 1522 1525 1527 1530 1532 1534 1536 1538 1539 1540 1541 1541 1542 1542 1542 1543 1542 1542 1542 1543 1542 1541 1540 1539 1539 1538 1538 1538 1537 1537 1537 1536 1535 1535 1535 1536 1535 1534 1533 1532 1532 1531
1515 1521 1524 1528 1530 1532 1534 1536 1537 1538 1539 1541 1541 1542 1542 1542 1543 1543 1543 1543 1543 1542 1542 1540 1540 1539 1539 1539 1539 1538 1538 1537 1537 1536 1536 1536 1538 1537 1536 1535 1534 1533 1533
1513 1519 1523 1527 1530 1532 1533 1535 1537 1538 1539 1540 1541 1541 1542 1542 1543 1543 1543 1543 1542 1542 1541 1541 1541 1540 1540 1540 1540 1539 1539 1539 1538 1537 1537 1538 1539 1540 1538 1537 1536 1536 1535
1513 1518 1522 1526 1529 1532 1534 1534 1537 1537 1538 1540 1541 1542 1542 1542 1543 1543 1543 1543 1542 1542 1542 1542 1541 1541 1541 1541 1540 1540 1540 1540 1540 1539 1539 1540 1541 1541 1541 1540 1539 1538 1537
1513 1517 1521 1525 1529 1531 1534 1534 1535 1537 1538 1539 1541 1541 1542 1543 1543 1543 1543 1543 1543 1543 1542 1542 1541 1541 1541 1541 1541 1541 1541 1541 1541 1540 1540 1541 1542 1542 1541 1541 1541 1540 1539
1513 1517 1520 1524 1527 1530 1533 1535 1536 1536 1537 1539 1540 1541 1542 1543 1543 1543 1542 1542 1542 1542 1542 1542 1542 1542 1541 1542 1542 1542 1541 1542 1541 1541 1541 1542 1543 1542 1542 1541 1541 1541 1540
1512 1517 1521 1523 1527 1529 1532 1534 1535 1536 1538 1539 1540 1541 1541 1542 1542 1542 1541 1541 1541 1541 1541 1542 1542 1542 1542 1542 1542 1542 1542 1542 1542 1542 1543 1543 1543 1543 1542 1541 1541 1541 1540
1508 1514 1519 1521 1526 1528 1530 1533 1534 1536 1537 1539 1540 1540 1541 1541 1542 1542 1541 1540 1540 1541 1541 1541 1541 1542 1542 1542 1543 1543 1543 1543 1543 1543 1543 1543 1543 1543 1542 1541 1541 1540 1539
1506 1511 1515 1519 1523 1527 1529 1530 1532 1534 1537 1538 1539 1540 1540 1540 1541 1541 1540 1540 1540 1540 1540 1540 1541 1541 1542 1542 1543 1543 1544 1544 1544 1544 1544 1544 1544 1543 1542 1541 1541 1540 1539
1503 1508 1513 1518 1521 1525 1528 1529 1530 1531 1534 1536 1538 1539 1539 1539 1539 1539 1539 1539 1539 1539 1540 1540 1540 1541 1541 1542 1542 1543 1544 1544 1544 1544 1545 1545 1544 1544 1543 1543 1543 1541 1540
1501 1504 1509 1514 1516 1520 1522 1525 1526 1528 1530 1532 1535 1537 1537 1538 1538 1538 1538 1538 1538 1538 1539 1539 1539 1540 1540 1540 1541 1543 1543 1544 1544 1545 1545 1545 1545 1545 1544 1543 1542 1541 1540
1495 1502 1506 1509 1512 1516 1519 1523 1523 1526 1528 1531 1532 1534 1535 1536 1536 1536 1536 1536 1536 1537 1537 1537 1538 1539 1539 1539 1540 1541 1542 1545 1544 1545 1545 1545 1545 1544 1544 1543 1542 1541 1541
1484 1494 1500 1502 1507 1512 1516 1519 1520 1523 1526 1526 1529 1531 1532 1533 1534 1534 1534 1534 1534 1535 1535 1536 1536 1537 1538 1537 1538 1540 1540 1542 1543 1544 1544 1544 1544 1544 1544 1543 1542 1541 1540
1479 1481 1486 1495 1502 1508 1511 1513 1515 1518 1520 1522 1525 1528 1530 1530 1531 1532 1532 1532 1532 1533 1533 1534 1535 1535 1536 1536 1536 1537 1538 1539 1541 1543 1543 1543 1543 1543 1543 1542 1541 1540 1538
1474 1473 1478 1485 1496 1502 1505 1509 1512 1515 1517 1519 1522 1524 1526 1527 1528 1529 1529 1530 1530 1530 1531 1532 1532 1533 1534 1534 1534 1535 1536 1537 1538 1539 1540 1542 1542 1542 1542 1541 1540 1539 1537
1467 1473 1477 1482 1490 1496 1500 1504 1506 1510 1512 1514 1518 1521 1522 1523 1525 1525 1526 1527 1527 1528 1528 1529 1530 1531 1532 1532 1533 1533 1534 1535 1535 1536 1537 1539 1540 1540 1540 1539 1538 1537 1536